| time (UTC) | temp F | wind direction | speed MPH | gust MPH | rain 1hr in | rain 24hr in | rain mn in | humidity % | barometer mb |
| 20260504215020 | 56 | 182 | 0.0 | 0.0 | 0.02 | 0.05 | 0.10 | 89 | 1013.9 |
| 20260504214514 | 56 | 182 | 0.0 | 0.0 | 0.02 | 0.05 | 0.10 | 89 | 1013.9 |
| 20260504214013 | 56 | 182 | 0.0 | 0.0 | 0.02 | 0.05 | 0.10 | 89 | 1013.9 |
| 20260504213436 | 56 | 182 | 0.0 | 0.0 | 0.02 | 0.05 | 0.10 | 89 | 1013.9 |
| 20260504212923 | 56 | 184 | 0.0 | 0.0 | 0.01 | 0.04 | 0.09 | 89 | 1014.1 |
| 20260504212420 | 56 | 185 | 0.0 | 0.0 | 0.01 | 0.04 | 0.09 | 89 | 1014.2 |
| 20260504211918 | 56 | 185 | 0.0 | 0.0 | 0.02 | 0.04 | 0.09 | 88 | 1014.1 |
| 20260504211335 | 56 | 185 | 0.0 | 0.0 | 0.03 | 0.04 | 0.09 | 88 | 1014.1 |
| 20260504210827 | 56 | 186 | 0.0 | 0.0 | 0.02 | 0.03 | 0.08 | 88 | 1014.2 |
| 20260504210325 | 56 | 186 | 0.0 | 0.0 | 0.02 | 0.03 | 0.08 | 88 | 1014.1 |
| 20260504205823 | 56 | 188 | 0.0 | 0.0 | 0.03 | 0.03 | 0.08 | 88 | 1014.0 |
| 20260504205308 | 56 | 190 | 0.0 | 0.0 | 0.03 | 0.03 | 0.08 | 87 | 1013.8 |
| 20260504205301 | 56 | 196 | 0.0 | 0.0 | 0.03 | 0.03 | 0.08 | 88 | 1013.9 |
| 20260504204256 | 56 | 205 | 0.0 | 0.0 | 0.03 | 0.03 | 0.08 | 88 | 1013.7 |
| 20260504203754 | 56 | 200 | 0.0 | 0.0 | 0.03 | 0.03 | 0.08 | 87 | 1013.7 |
| 20260504203255 | 56 | 200 | 0.0 | 3.0 | 0.03 | 0.03 | 0.08 | 87 | 1013.9 |
| 20260504203249 | 56 | 200 | 1.0 | 3.0 | 0.03 | 0.03 | 0.08 | 87 | 1013.8 |
| 20260504202232 | 56 | 202 | 1.0 | 5.0 | 0.03 | 0.03 | 0.08 | 87 | 1013.8 |
| 20260504201728 | 56 | 204 | 1.0 | 5.0 | 0.02 | 0.02 | 0.07 | 87 | 1013.9 |
| 20260504201228 | 57 | 225 | 1.0 | 4.0 | 0.01 | 0.01 | 0.06 | 87 | 1013.7 |
| 20260504200731 | 57 | 180 | 0.0 | 3.0 | 0.01 | 0.01 | 0.06 | 87 | 1013.7 |
| 20260504200214 | 57 | 200 | 0.0 | 2.0 | 0.01 | 0.01 | 0.06 | 87 | 1013.7 |
| 20260504195712 | 57 | 200 | 0.0 | 2.0 | 0.00 | 0.00 | 0.05 | 87 | 1013.7 |
| 20260504195206 | 57 | 185 | 0.0 | 2.0 | 0.00 | 0.00 | 0.05 | 87 | 1013.9 |
| 20260504194710 | 57 | 184 | 1.0 | 2.0 | 0.00 | 0.00 | 0.05 | 87 | 1013.8 |
| 20260504194208 | 57 | 215 | 0.0 | 2.0 | 0.00 | 0.00 | 0.05 | 87 | 1014.0 |
| 20260504193653 | 57 | 215 | 1.0 | 0.0 | 0.00 | 0.00 | 0.05 | 87 | 1014.0 |
| 20260504193327 | 57 | 213 | 1.0 | 4.0 | 0.00 | 0.00 | 0.05 | 88 | 1014.3 |
| 20260504191826 | 56 | 233 | 1.0 | 4.0 | 0.00 | 0.00 | 0.05 | 88 | 1014.2 |
| 20260504191322 | 56 | 234 | 1.0 | 2.0 | 0.00 | 0.00 | 0.05 | 88 | 1014.2 |
| 20260504190206 | 56 | 204 | 1.0 | 5.0 | 0.01 | 0.01 | 0.05 | 88 | 1014.0 |
| 20260504185702 | 56 | 209 | 2.0 | 6.0 | 0.00 | 0.00 | 0.04 | 88 | 1014.1 |
| 20260504185657 | 56 | 138 | 2.0 | 6.0 | 0.00 | 0.00 | 0.04 | 88 | 1014.0 |
| 20260504184646 | 56 | 185 | 2.0 | 5.0 | 0.00 | 0.00 | 0.04 | 87 | 1014.1 |
| 20260504184146 | 55 | 217 | 2.0 | 2.0 | 0.00 | 0.00 | 0.04 | 87 | 1014.0 |
| 20260504182822 | 55 | 185 | 2.0 | 4.0 | 0.00 | 0.00 | 0.04 | 87 | 1014.1 |
| 20260504182318 | 55 | 211 | 2.0 | 1.0 | 0.00 | 0.00 | 0.03 | 87 | 1014.0 |
| 20260504180916 | 56 | 187 | 1.0 | 6.0 | 0.02 | 0.02 | 0.02 | 86 | 1014.2 |
| 20260504180415 | 56 | 185 | 1.0 | 6.0 | 0.02 | 0.02 | 0.02 | 86 | 1014.1 |
| 20260504175911 | 56 | 202 | 0.0 | 3.0 | 0.02 | 0.02 | 0.02 | 86 | 1014.0 |
| 20260504175414 | 56 | 205 | 0.0 | 3.0 | 0.01 | 0.01 | 0.01 | 85 | 1014.0 |
| 20260504174847 | 56 | 203 | 1.0 | 4.0 | 0.00 | 0.00 | 0.00 | 84 | 1013.9 |
| 20260504174334 | 56 | 219 | 1.0 | 5.0 | 0.00 | 0.00 | 0.00 | 84 | 1013.7 |
| 20260504173834 | 56 | 202 | 1.0 | 5.0 | 0.00 | 0.00 | 0.00 | 83 | 1013.6 |
| 20260504173334 | 56 | 191 | 2.0 | 5.0 | 0.00 | 0.00 | 0.00 | 83 | 1013.6 |
| 20260504172835 | 56 | 215 | 2.0 | 5.0 | 0.00 | 0.00 | 0.00 | 83 | 1013.6 |
| 20260504172326 | 56 | 202 | 2.0 | 1.0 | 0.00 | 0.00 | 0.00 | 82 | 1013.6 |
| 20260504171425 | 56 | 205 | 3.0 | 6.0 | 0.00 | 0.00 | 0.00 | 78 | 1013.4 |
| 20260504170915 | 56 | 226 | 3.0 | 6.0 | 0.00 | 0.00 | 0.00 | 79 | 1013.6 |
| 20260504160122 | 56 | 165 | 3.0 | 7.0 | 0.00 | 0.00 | 0.00 | 78 | 1013.3 |
| 20260504150856 | 56 | 155 | 2.0 | 7.0 | 0.00 | 0.00 | 0.00 | 80 | 1012.8 |
| 20260504150355 | 55 | 169 | 2.0 | 4.0 | 0.00 | 0.00 | 0.00 | 80 | 1012.9 |
| 20260504140406 | 53 | 182 | 2.0 | 5.0 | 0.00 | 0.00 | 0.00 | 85 | 1012.7 |
| 20260504140401 | 53 | 205 | 1.0 | 5.0 | 0.00 | 0.00 | 0.00 | 85 | 1012.7 |
| 20260504130738 | 53 | 204 | 2.0 | 10.0 | 0.00 | 0.00 | 0.00 | 84 | 1012.2 |
| 20260504130233 | 53 | 220 | 2.0 | 6.0 | 0.00 | 0.00 | 0.00 | 84 | 1012.2 |
| 20260504110520 | 53 | 180 | 0.0 | 3.0 | 0.00 | 0.00 | 0.00 | 82 | 1012.3 |
| 20260504081702 | 55 | 178 | 2.0 | 5.0 | 0.00 | 0.00 | 0.00 | 77 | 1012.2 |
| 20260504081658 | 55 | 201 | 2.0 | 5.0 | 0.00 | 0.00 | 0.00 | 77 | 1012.1 |
| 20260504080658 | 55 | 206 | 2.0 | 4.0 | 0.00 | 0.00 | 0.00 | 77 | 1012.2 |
| 20260504080640 | 55 | 180 | 1.0 | 2.0 | 0.00 | 0.00 | 0.00 | 77 | 1012.2 |
| 20260504060109 | 57 | 169 | 1.0 | 0.0 | 0.00 | 0.00 | 0.00 | 74 | 1012.2 |
| 20260504050356 | 59 | 236 | 3.0 | 7.0 | 0.00 | 0.00 | 0.00 | 68 | 1011.6 |
| 20260504045852 | 59 | 236 | 2.0 | 5.0 | 0.00 | 0.00 | 0.00 | 67 | 1011.5 |
| 20260504045351 | 60 | 218 | 1.0 | 4.0 | 0.00 | 0.00 | 0.00 | 67 | 1011.6 |
| 20260504044851 | 60 | 223 | 1.0 | 3.0 | 0.00 | 0.00 | 0.00 | 67 | 1011.5 |
| 20260504044335 | 60 | 227 | 1.0 | 4.0 | 0.00 | 0.00 | 0.00 | 66 | 1011.5 |
| 20260504044330 | 60 | 226 | 1.0 | 3.0 | 0.00 | 0.00 | 0.00 | 67 | 1011.5 |
| 20260504043334 | 60 | 231 | 2.0 | 6.0 | 0.00 | 0.00 | 0.00 | 66 | 1011.4 |
| 20260504043328 | 60 | 233 | 4.0 | 7.0 | 0.00 | 0.00 | 0.00 | 66 | 1011.4 |
| 20260504042329 | 60 | 230 | 4.0 | 11.0 | 0.00 | 0.00 | 0.00 | 66 | 1011.2 |
| 20260504041834 | 61 | 234 | 4.0 | 11.0 | 0.00 | 0.00 | 0.00 | 65 | 1011.2 |
| 20260504041344 | 61 | 236 | 4.0 | 7.0 | 0.00 | 0.00 | 0.00 | 65 | 1011.2 |
| 20260504040828 | 61 | 255 | 3.0 | 6.0 | 0.00 | 0.00 | 0.00 | 65 | 1011.1 |
| 20260504040329 | 61 | 214 | 3.0 | 4.0 | 0.00 | 0.00 | 0.00 | 65 | 1011.2 |
| 20260504035056 | 61 | 232 | 5.0 | 2.0 | 0.00 | 0.00 | 0.00 | 64 | 1011.0 |
| 20260504033800 | 62 | 246 | 5.0 | 10.0 | 0.00 | 0.00 | 0.00 | 63 | 1010.8 |
| 20260504033754 | 61 | 254 | 5.0 | 9.0 | 0.00 | 0.00 | 0.00 | 64 | 1010.9 |
| 20260504032756 | 62 | 206 | 5.0 | 11.0 | 0.00 | 0.00 | 0.00 | 63 | 1010.7 |
| 20260504032253 | 62 | 244 | 5.0 | 11.0 | 0.00 | 0.00 | 0.00 | 63 | 1010.6 |
| 20260504031757 | 62 | 229 | 4.0 | 6.0 | 0.00 | 0.00 | 0.00 | 62 | 1010.7 |
| 20260504030355 | 63 | 232 | 6.0 | 11.0 | 0.00 | 0.00 | 0.00 | 61 | 1010.5 |
| 20260504025855 | 63 | 236 | 5.0 | 12.0 | 0.00 | 0.00 | 0.00 | 60 | 1010.5 |
| 20260504025353 | 64 | 257 | 5.0 | 12.0 | 0.00 | 0.00 | 0.00 | 60 | 1010.4 |
| 20260504024854 | 64 | 257 | 5.0 | 10.0 | 0.00 | 0.00 | 0.00 | 60 | 1010.4 |
| 20260504024357 | 64 | 238 | 5.0 | 10.0 | 0.00 | 0.00 | 0.00 | 60 | 1010.3 |
| 20260504024352 | 64 | 240 | 4.0 | 8.0 | 0.00 | 0.00 | 0.00 | 59 | 1010.3 |
| 20260504023351 | 65 | 241 | 4.0 | 9.0 | 0.00 | 0.00 | 0.00 | 59 | 1010.3 |
| 20260504022852 | 65 | 262 | 5.0 | 9.0 | 0.00 | 0.00 | 0.00 | 58 | 1010.1 |
| 20260504022353 | 65 | 253 | 5.0 | 3.0 | 0.00 | 0.00 | 0.00 | 58 | 1010.2 |
| 20260504021159 | 65 | 248 | 4.0 | 10.0 | 0.00 | 0.00 | 0.00 | 57 | 1010.2 |
| 20260504020701 | 65 | 246 | 5.0 | 11.0 | 0.00 | 0.00 | 0.00 | 57 | 1010.3 |
| 20260504020159 | 66 | 225 | 5.0 | 11.0 | 0.00 | 0.00 | 0.00 | 57 | 1010.3 |
| 20260504015659 | 66 | 225 | 5.0 | 10.0 | 0.00 | 0.00 | 0.00 | 56 | 1010.3 |
| 20260504015205 | 67 | 248 | 5.0 | 3.0 | 0.00 | 0.00 | 0.00 | 56 | 1010.3 |
| 20260504014333 | 68 | 237 | 4.0 | 9.0 | 0.00 | 0.00 | 0.00 | 54 | 1010.0 |
| 20260504013329 | 68 | 229 | 4.0 | 9.0 | 0.00 | 0.00 | 0.00 | 54 | 1009.9 |
| 20260504012824 | 68 | 234 | 4.0 | 9.0 | 0.00 | 0.00 | 0.00 | 54 | 1009.9 |
| 20260504012321 | 68 | 232 | 3.0 | 7.0 | 0.00 | 0.00 | 0.00 | 53 | 1010.1 |
| 20260504012229 | 69 | 232 | 3.0 | 9.0 | 0.00 | 0.00 | 0.00 | 53 | 1010.0 |
| 20260504011428 | 69 | 237 | 4.0 | 10.0 | 0.00 | 0.00 | 0.00 | 54 | 1010.1 |
| 20260504010220 | 69 | 233 | 4.0 | 10.0 | 0.00 | 0.00 | 0.00 | 53 | 1010.1 |
| 20260504005724 | 69 | 213 | 3.0 | 10.0 | 0.00 | 0.00 | 0.00 | 54 | 1010.2 |
| 20260504005223 | 68 | 240 | 3.0 | 0.0 | 0.00 | 0.00 | 0.00 | 54 | 1010.1 |
| 20260504004343 | 68 | 245 | 2.0 | 3.0 | 0.00 | 0.00 | 0.00 | 55 | 1009.9 |
| 20260504003838 | 68 | 198 | 4.0 | 6.0 | 0.00 | 0.00 | 0.00 | 55 | 1009.9 |
| 20260504002117 | 68 | 178 | 1.0 | 5.0 | 0.00 | 0.00 | 0.00 | 56 | 1009.9 |
| 20260504001602 | 68 | 235 | 1.0 | 5.0 | 0.00 | 0.00 | 0.00 | 55 | 1009.9 |
| 20260504001039 | 68 | 205 | 2.0 | 3.0 | 0.00 | 0.00 | 0.00 | 56 | 1009.9 |
| 20260504000539 | 68 | 227 | 3.0 | 3.0 | 0.00 | 0.00 | 0.00 | 56 | 1009.8 |
| 20260503235310 | 68 | 223 | 2.0 | 5.0 | 0.00 | 0.00 | 0.00 | 58 | 1010.0 |
| 20260503234815 | 67 | 219 | 1.0 | 2.0 | 0.00 | 0.00 | 0.00 | 58 | 1010.0 |
| 20260503233242 | 67 | 194 | 1.0 | 4.0 | 0.00 | 0.00 | 0.00 | 58 | 1010.5 |
| 20260503232739 | 66 | 180 | 1.0 | 3.0 | 0.00 | 0.00 | 0.00 | 58 | 1010.6 |
| 20260503232234 | 67 | 178 | 1.0 | 3.0 | 0.00 | 0.00 | 0.00 | 58 | 1010.6 |
| 20260503231722 | 67 | 179 | 1.0 | 6.0 | 0.00 | 0.00 | 0.00 | 58 | 1010.6 |
| 20260503231235 | 67 | 221 | 3.0 | 6.0 | 0.00 | 0.00 | 0.00 | 58 | 1010.5 |
| 20260503230720 | 66 | 236 | 5.0 | 2.0 | 0.00 | 0.00 | 0.00 | 58 | 1010.5 |
| 20260503230431 | 66 | 237 | 4.0 | 10.0 | 0.00 | 0.00 | 0.00 | 59 | 1010.6 |
| 20260503224922 | 66 | 245 | 4.0 | 10.0 | 0.00 | 0.00 | 0.00 | 58 | 1010.5 |
| 20260503224424 | 66 | 202 | 5.0 | 9.0 | 0.00 | 0.00 | 0.00 | 59 | 1010.4 |
| 20260503224420 | 67 | 219 | 4.0 | 9.0 | 0.00 | 0.00 | 0.00 | 58 | 1010.4 |
| 20260503223420 | 66 | 242 | 5.0 | 5.0 | 0.00 | 0.00 | 0.00 | 58 | 1010.5 |
| 20260503222451 | 66 | 225 | 3.0 | 7.0 | 0.00 | 0.00 | 0.00 | 58 | 1010.5 |
| 20260503221454 | 66 | 216 | 4.0 | 8.0 | 0.00 | 0.00 | 0.00 | 59 | 1010.3 |
| 20260503221450 | 67 | 245 | 3.0 | 7.0 | 0.00 | 0.00 | 0.00 | 58 | 1010.5 |
| 20260503220449 | 66 | 234 | 4.0 | 8.0 | 0.00 | 0.00 | 0.00 | 59 | 1010.2 |
| 20260503215949 | 65 | 240 | 5.0 | 10.0 | 0.00 | 0.00 | 0.00 | 60 | 1010.2 |
| 20260503215449 | 65 | 226 | 6.0 | 11.0 | 0.00 | 0.00 | 0.00 | 59 | 1010.2 |